When you browse on this site, cookies collect data to enhance your experience and personalize the content and advertising you see.
Visit our Privacy Policy to learn more. By continuing to use the site, you agree to this use of cookies and data.
  • en Suisse
  • Liste des pays
  • À 7 jours
  • Température de l'eau
  • Carte météo
  • Widgets météo
  • user-avatar
    Se connecter

    Météo par heure à Inverclyde

    Ce jour, 5 Juin, Vendredi

    Heure Température Précipitation Vent Pression Humidité
    00:00 +5°C° 0.1 mm 2 m/s 748 mmHg 90%
    01:00 +5°C° 0 mm 2 m/s 747 mmHg 91%
    02:00 +4°C° 0 mm 3 m/s 746 mmHg 92%
    03:00 +4°C° 0 mm 3 m/s 746 mmHg 92%
    04:00 +4°C° 0.2 mm 3 m/s 746 mmHg 92%
    05:00 +5°C° 0.2 mm 4 m/s 745 mmHg 91%
    06:00 +5°C° 0.2 mm 4 m/s 745 mmHg 90%
    07:00 +6°C° 0.2 mm 5 m/s 745 mmHg 87%
    08:00 +5°C° 0.2 mm 6 m/s 744 mmHg 84%
    09:00 +6°C° 0.2 mm 7 m/s 744 mmHg 81%
    10:00 +6°C° 0.2 mm 8 m/s 743 mmHg 78%
    11:00 +6°C° 0.2 mm 8 m/s 743 mmHg 75%
    12:00 +7°C° 0.2 mm 9 m/s 742 mmHg 72%
    13:00 +6°C° 0.3 mm 9 m/s 741 mmHg 78%
    14:00 +6°C° 0.3 mm 8 m/s 741 mmHg 84%
    15:00 +5°C° 0.3 mm 8 m/s 740 mmHg 90%
    16:00 +5°C° 0.8 mm 8 m/s 739 mmHg 91%
    17:00 +6°C° 0.8 mm 7 m/s 739 mmHg 92%
    18:00 +6°C° 0.8 mm 7 m/s 739 mmHg 93%
    19:00 +8°C° 1.5 mm 6 m/s 739 mmHg 94%
    20:00 +8°C° 1.5 mm 6 m/s 739 mmHg 95%
    21:00 +8°C° 1.5 mm 5 m/s 739 mmHg 96%
    22:00 +8°C° 1.7 mm 5 m/s 740 mmHg 96%
    23:00 +8°C° 1.7 mm 5 m/s 740 mmHg 96%

    Demain, 6 Juin, Samedi

    Heure Température Précipitation Vent Pression Humidité
    00:00 +8°C° 1.7 mm 5 m/s 740 mmHg 96%
    01:00 +8°C° 0.5 mm 5 m/s 741 mmHg 95%
    02:00 +8°C° 0.5 mm 4 m/s 742 mmHg 95%
    03:00 +8°C° 0.5 mm 4 m/s 743 mmHg 95%
    04:00 +8°C° 0.7 mm 4 m/s 743 mmHg 95%
    05:00 +9°C° 0.7 mm 3 m/s 744 mmHg 96%
    06:00 +9°C° 0.7 mm 2 m/s 744 mmHg 97%
    07:00 +10°C° 0.5 mm 3 m/s 745 mmHg 95%
    08:00 +10°C° 0.5 mm 3 m/s 745 mmHg 94%
    09:00 +11°C° 0.5 mm 3 m/s 746 mmHg 93%
    10:00 +11°C° 0.2 mm 3 m/s 746 mmHg 90%
    11:00 +12°C° 0.2 mm 3 m/s 746 mmHg 88%
    12:00 +13°C° 0.2 mm 3 m/s 746 mmHg 85%
    13:00 +12°C° 0.7 mm 3 m/s 746 mmHg 87%
    14:00 +12°C° 0.7 mm 3 m/s 746 mmHg 88%
    15:00 +12°C° 0.7 mm 4 m/s 747 mmHg 90%
    16:00 +12°C° 1.7 mm 3 m/s 747 mmHg 92%
    17:00 +11°C° 1.7 mm 3 m/s 747 mmHg 94%
    18:00 +12°C° 1.7 mm 2 m/s 748 mmHg 96%
    19:00 +10°C° 0.4 mm 3 m/s 748 mmHg 95%
    20:00 +10°C° 0.4 mm 3 m/s 749 mmHg 95%
    21:00 +10°C° 0.4 mm 3 m/s 749 mmHg 95%
    22:00 +10°C° 0 mm 3 m/s 750 mmHg 95%
    23:00 +10°C° 0 mm 3 m/s 750 mmHg 95%

    Après-demain, 7 Juin, Dimanche

    Heure Température Précipitation Vent Pression Humidité
    00:00 +9°C° 0 mm 3 m/s 750 mmHg 95%
    01:00 +9°C° 0 mm 3 m/s 751 mmHg 95%
    02:00 +9°C° 0 mm 3 m/s 751 mmHg 95%
    03:00 +9°C° 0 mm 3 m/s 751 mmHg 95%
    04:00 +9°C° 0 mm 3 m/s 752 mmHg 94%
    05:00 +10°C° 0 mm 3 m/s 752 mmHg 93%
    06:00 +10°C° 0 mm 3 m/s 753 mmHg 92%
    07:00 +10°C° 0.1 mm 3 m/s 754 mmHg 91%
    08:00 +10°C° 0.1 mm 3 m/s 754 mmHg 90%
    09:00 +10°C° 0.1 mm 3 m/s 755 mmHg 89%
    10:00 +10°C° 0.1 mm 3 m/s 756 mmHg 88%
    11:00 +10°C° 0.1 mm 3 m/s 756 mmHg 86%
    12:00 +10°C° 0.1 mm 3 m/s 757 mmHg 85%
    13:00 +11°C° 0.1 mm 3 m/s 757 mmHg 83%
    14:00 +11°C° 0.1 mm 4 m/s 758 mmHg 82%
    15:00 +11°C° 0.1 mm 4 m/s 758 mmHg 80%
    16:00 +10°C° 0 mm 4 m/s 758 mmHg 80%
    17:00 +10°C° 0 mm 4 m/s 759 mmHg 79%
    18:00 +8°C° 0 mm 4 m/s 759 mmHg 79%
    19:00 +9°C° 0 mm 3 m/s 759 mmHg 79%
    20:00 +8°C° 0 mm 3 m/s 760 mmHg 80%
    21:00 +7°C° 0 mm 3 m/s 761 mmHg 80%
    22:00 +7°C° 0 mm 3 m/s 761 mmHg 80%
    23:00 +6°C° 0 mm 2 m/s 761 mmHg 79%

    8 Juin, Lundi

    Heure Température Précipitation Vent Pression Humidité
    00:00 +6°C° 0 mm 2 m/s 761 mmHg 79%
    01:00 +6°C° 0 mm 2 m/s 761 mmHg 78%
    02:00 +6°C° 0 mm 2 m/s 761 mmHg 78%
    03:00 +7°C° 0 mm 1 m/s 762 mmHg 77%
    04:00 +7°C° 0 mm 2 m/s 762 mmHg 75%
    05:00 +7°C° 0 mm 2 m/s 762 mmHg 73%
    06:00 +7°C° 0 mm 2 m/s 762 mmHg 71%
    07:00 +8°C° 0 mm 2 m/s 763 mmHg 67%
    08:00 +9°C° 0 mm 2 m/s 763 mmHg 64%
    09:00 +9°C° 0 mm 2 m/s 763 mmHg 61%
    10:00 +10°C° 0 mm 2 m/s 763 mmHg 60%
    11:00 +10°C° 0 mm 2 m/s 763 mmHg 59%
    12:00 +12°C° 0 mm 2 m/s 763 mmHg 57%
    13:00 +12°C° 0 mm 2 m/s 764 mmHg 57%
    14:00 +12°C° 0 mm 2 m/s 764 mmHg 58%
    15:00 +13°C° 0 mm 2 m/s 764 mmHg 58%
    16:00 +12°C° 0 mm 2 m/s 764 mmHg 60%
    17:00 +12°C° 0 mm 2 m/s 764 mmHg 62%
    18:00 +11°C° 0 mm 3 m/s 764 mmHg 65%
    19:00 +10°C° 0 mm 2 m/s 765 mmHg 71%
    20:00 +8°C° 0 mm 2 m/s 765 mmHg 77%
    21:00 +7°C° 0 mm 2 m/s 765 mmHg 83%
    22:00 +8°C° 0 mm 1 m/s 766 mmHg 86%
    23:00 +7°C° 0 mm 1 m/s 766 mmHg 89%

    9 Juin, Mardi

    Heure Température Précipitation Vent Pression Humidité
    00:00 +6°C° 0 mm 1 m/s 766 mmHg 92%
    01:00 +6°C° 0 mm 1 m/s 766 mmHg 92%
    02:00 +6°C° 0 mm 1 m/s 766 mmHg 92%
    03:00 +4°C° 0 mm 0 m/s 766 mmHg 92%
    04:00 +5°C° 0 mm 0 m/s 766 mmHg 88%
    05:00 +7°C° 0 mm 0 m/s 766 mmHg 83%
    06:00 +8°C° 0 mm 0 m/s 766 mmHg 79%
    07:00 +11°C° 0 mm 1 m/s 767 mmHg 73%
    08:00 +12°C° 0 mm 1 m/s 767 mmHg 66%
    09:00 +14°C° 0 mm 1 m/s 767 mmHg 60%
    10:00 +15°C° 0 mm 1 m/s 767 mmHg 59%
    11:00 +16°C° 0 mm 1 m/s 767 mmHg 57%
    12:00 +16°C° 0 mm 2 m/s 767 mmHg 55%
    13:00 +16°C° 0 mm 2 m/s 767 mmHg 57%
    14:00 +16°C° 0 mm 2 m/s 767 mmHg 59%
    15:00 +16°C° 0 mm 2 m/s 767 mmHg 61%
    16:00 +15°C° 0 mm 2 m/s 767 mmHg 64%
    17:00 +15°C° 0 mm 2 m/s 767 mmHg 68%
    18:00 +14°C° 0 mm 2 m/s 768 mmHg 72%
    19:00 +13°C° 0 mm 2 m/s 768 mmHg 77%
    20:00 +12°C° 0 mm 1 m/s 768 mmHg 83%
    21:00 +11°C° 0 mm 1 m/s 769 mmHg 89%
    22:00 +11°C° 0 mm 1 m/s 769 mmHg 91%
    23:00 +10°C° 0 mm 1 m/s 769 mmHg 92%

    10 Juin, Mercredi

    Heure Température Précipitation Vent Pression Humidité
    00:00 +9°C° 0 mm 0 m/s 769 mmHg 93%
    01:00 +8°C° 0 mm 0 m/s 769 mmHg 93%
    02:00 +9°C° 0 mm 1 m/s 769 mmHg 94%
    03:00 +9°C° 0 mm 1 m/s 769 mmHg 94%
    04:00 +10°C° 0 mm 1 m/s 769 mmHg 91%
    05:00 +11°C° 0 mm 1 m/s 769 mmHg 88%
    06:00 +12°C° 0 mm 1 m/s 769 mmHg 85%
    07:00 +14°C° 0 mm 1 m/s 769 mmHg 78%
    08:00 +15°C° 0 mm 1 m/s 769 mmHg 70%
    09:00 +18°C° 0 mm 1 m/s 769 mmHg 63%
    10:00 +19°C° 0 mm 1 m/s 769 mmHg 60%
    11:00 +20°C° 0 mm 1 m/s 769 mmHg 57%
    12:00 +20°C° 0 mm 1 m/s 769 mmHg 54%
    13:00 +21°C° 0 mm 1 m/s 769 mmHg 55%
    14:00 +20°C° 0 mm 2 m/s 769 mmHg 55%
    15:00 +20°C° 0 mm 2 m/s 769 mmHg 55%
    16:00 +19°C° 0 mm 2 m/s 769 mmHg 60%
    17:00 +18°C° 0 mm 2 m/s 769 mmHg 64%
    18:00 +17°C° 0 mm 2 m/s 769 mmHg 68%
    19:00 +16°C° 0 mm 2 m/s 770 mmHg 75%
    20:00 +14°C° 0 mm 2 m/s 770 mmHg 83%
    21:00 +12°C° 0 mm 1 m/s 770 mmHg 90%
    22:00 +11°C° 0 mm 1 m/s 770 mmHg 91%
    23:00 +11°C° 0 mm 1 m/s 770 mmHg 91%
    Voir plus